Time,TemperatureF,DewpointF,PressureIn,WindDirection,WindDirectionDegrees,WindSpeedMPH,WindSpeedGustMPH,Humidity,HourlyPrecipIn,Conditions,Clouds,dailyrainin,SoftwareType,DateUTC
2013-06-18 00:02:00,72.0,65.0,29.90,West,276,1.0,7.0,79,0.00,,,0.00,,2013-06-18 04:02:00,
2013-06-18 00:12:00,72.0,65.0,29.89,WSW,253,1.0,5.0,79,0.00,,,0.00,,2013-06-18 04:12:00,
2013-06-18 00:23:00,72.0,65.0,29.91,SW,236,1.0,5.0,79,0.00,,,0.00,,2013-06-18 04:23:00,
2013-06-18 00:34:00,72.0,65.0,29.91,SW,236,1.0,5.0,79,0.00,,,0.00,,2013-06-18 04:34:00,
2013-06-18 00:43:00,71.0,65.0,29.88,South,184,2.0,6.0,80,0.00,,,0.00,,2013-06-18 04:43:00,
2013-06-18 00:53:00,71.0,65.0,29.88,South,172,0.0,7.0,80,0.00,,,0.00,,2013-06-18 04:53:00,
2013-06-18 01:02:00,71.0,65.0,29.88,South,172,0.0,0.0,81,0.00,,,0.00,,2013-06-18 05:02:00,
2013-06-18 01:12:00,71.0,65.0,29.88,South,172,0.0,0.0,81,0.00,,,0.00,,2013-06-18 05:12:00,
2013-06-18 01:22:00,70.0,64.0,29.89,South,172,0.0,3.0,80,0.00,,,0.00,,2013-06-18 05:22:00,
2013-06-18 01:34:00,70.0,64.0,29.90,South,172,0.0,3.0,81,0.00,,,0.00,,2013-06-18 05:34:00,
2013-06-18 01:43:00,70.0,64.0,29.87,South,172,0.0,0.0,82,0.00,,,0.00,,2013-06-18 05:43:00,
2013-06-18 01:53:00,70.0,64.0,29.87,South,172,0.0,0.0,82,0.00,,,0.00,,2013-06-18 05:53:00,
2013-06-18 02:02:00,70.0,64.0,29.86,South,172,0.0,0.0,81,0.00,,,0.00,,2013-06-18 06:02:00,
2013-06-18 02:11:00,69.0,63.0,29.86,South,172,0.0,0.0,82,0.00,,,0.00,,2013-06-18 06:11:00,
2013-06-18 02:23:00,69.0,63.0,29.86,South,172,0.0,1.0,82,0.00,,,0.00,,2013-06-18 06:23:00,
2013-06-18 02:32:00,69.0,63.0,29.86,South,172,0.0,1.0,82,0.00,,,0.00,,2013-06-18 06:32:00,
2013-06-18 02:43:00,69.0,63.0,29.86,South,172,0.0,3.0,82,0.00,,,0.00,,2013-06-18 06:43:00,
2013-06-18 02:52:00,69.0,63.0,29.86,South,172,0.0,3.0,82,0.00,,,0.00,,2013-06-18 06:52:00,
2013-06-18 03:02:00,69.0,63.0,29.87,South,172,0.0,3.0,82,0.00,,,0.00,,2013-06-18 07:02:00,
2013-06-18 03:12:00,69.0,63.0,29.87,South,172,0.0,3.0,82,0.00,,,0.00,,2013-06-18 07:12:00,
2013-06-18 03:22:00,69.0,63.0,29.86,South,172,0.0,0.0,82,0.00,,,0.00,,2013-06-18 07:22:00,
2013-06-18 03:33:00,69.0,63.0,29.85,South,172,0.0,2.0,82,0.00,,,0.00,,2013-06-18 07:33:00,
2013-06-18 03:43:00,69.0,64.0,29.85,South,172,0.0,2.0,84,0.00,,,0.00,,2013-06-18 07:43:00,
2013-06-18 03:53:00,69.0,64.0,29.85,South,172,0.0,2.0,84,0.00,,,0.00,,2013-06-18 07:53:00,
2013-06-18 04:02:00,68.0,63.0,29.85,South,172,0.0,0.0,84,0.00,,,0.00,,2013-06-18 08:02:00,
2013-06-18 04:11:00,68.0,63.0,29.86,South,172,0.0,2.0,84,0.00,,,0.00,,2013-06-18 08:11:00,
2013-06-18 04:23:00,68.0,64.0,29.87,South,172,1.0,4.0,86,0.00,,,0.00,,2013-06-18 08:23:00,
2013-06-18 04:33:00,68.0,64.0,29.87,South,172,1.0,4.0,86,0.00,,,0.00,,2013-06-18 08:33:00,
2013-06-18 04:43:00,68.0,64.0,29.87,South,177,0.0,0.0,86,0.00,,,0.00,,2013-06-18 08:43:00,
2013-06-18 04:52:00,68.0,64.0,29.87,South,177,0.0,0.0,86,0.00,,,0.00,,2013-06-18 08:52:00,
2013-06-18 05:02:00,68.0,64.0,29.88,South,177,0.0,0.0,86,0.00,,,0.00,,2013-06-18 09:02:00,
2013-06-18 05:12:00,68.0,64.0,29.88,South,177,0.0,0.0,86,0.00,,,0.00,,2013-06-18 09:12:00,
2013-06-18 05:22:00,68.0,64.0,29.88,South,177,0.0,0.0,87,0.00,,,0.00,,2013-06-18 09:22:00,
2013-06-18 05:34:00,67.0,63.0,29.88,South,177,0.0,0.0,88,0.00,,,0.00,,2013-06-18 09:34:00,
2013-06-18 05:43:00,67.0,63.0,29.88,South,177,0.0,0.0,88,0.00,,,0.00,,2013-06-18 09:43:00,
2013-06-18 05:53:00,67.0,63.0,29.88,South,177,0.0,0.0,88,0.00,,,0.00,,2013-06-18 09:53:00,
2013-06-18 06:02:00,67.0,64.0,29.87,South,177,0.0,0.0,89,0.00,,,0.00,,2013-06-18 10:02:00,
2013-06-18 06:11:00,67.0,64.0,29.88,South,177,0.0,0.0,89,0.00,,,0.00,,2013-06-18 10:11:00,
2013-06-18 06:22:00,67.0,64.0,29.87,South,177,0.0,0.0,89,0.00,,,0.00,,2013-06-18 10:22:00,
2013-06-18 06:33:00,67.0,64.0,29.87,South,177,0.0,0.0,89,0.00,,,0.00,,2013-06-18 10:33:00,
2013-06-18 06:43:00,67.0,64.0,29.89,South,177,0.0,0.0,89,0.00,,,0.00,,2013-06-18 10:43:00,
2013-06-18 06:53:00,67.0,64.0,29.89,South,177,0.0,0.0,89,0.00,,,0.00,,2013-06-18 10:53:00,
2013-06-18 07:02:00,67.0,64.0,29.89,South,177,0.0,0.0,89,0.00,,,0.00,,2013-06-18 11:02:00,
2013-06-18 07:11:00,66.0,63.0,29.89,South,177,0.0,0.0,89,0.00,,,0.00,,2013-06-18 11:11:00,
2013-06-18 07:22:00,66.0,63.0,29.89,South,177,0.0,0.0,90,0.00,,,0.00,,2013-06-18 11:22:00,
2013-06-18 07:32:00,66.0,63.0,29.89,South,177,0.0,0.0,90,0.00,,,0.00,,2013-06-18 11:32:00,
2013-06-18 07:43:00,67.0,64.0,29.89,South,177,0.0,0.0,90,0.00,,,0.00,,2013-06-18 11:43:00,
2013-06-18 07:52:00,67.0,64.0,29.89,South,177,0.0,0.0,90,0.00,,,0.00,,2013-06-18 11:52:00,
2013-06-18 08:01:00,67.0,64.0,29.91,South,177,0.0,0.0,90,0.00,,,0.00,,2013-06-18 12:01:00,
2013-06-18 08:11:00,67.0,64.0,29.91,South,177,0.0,0.0,90,0.00,,,0.00,,2013-06-18 12:11:00,
2013-06-18 08:22:00,67.0,64.0,29.91,South,177,0.0,0.0,90,0.00,,,0.00,,2013-06-18 12:22:00,
2013-06-18 08:33:00,67.0,64.0,29.91,South,177,0.0,0.0,90,0.00,,,0.00,,2013-06-18 12:33:00,
2013-06-18 08:43:00,68.0,65.0,29.91,South,177,0.0,0.0,90,0.00,,,0.00,,2013-06-18 12:43:00,
2013-06-18 08:52:00,68.0,65.0,29.91,South,177,0.0,0.0,90,0.00,,,0.00,,2013-06-18 12:52:00,
2013-06-18 09:02:00,68.0,65.0,29.91,South,177,0.0,0.0,89,0.00,,,0.00,,2013-06-18 13:02:00,
2013-06-18 09:12:00,68.0,65.0,29.92,South,177,0.0,4.0,89,0.00,,,0.00,,2013-06-18 13:12:00,
2013-06-18 09:22:00,69.0,65.0,29.92,South,177,1.0,5.0,88,0.00,,,0.00,,2013-06-18 13:22:00,
2013-06-18 09:33:00,69.0,65.0,29.91,South,178,1.0,5.0,87,0.00,,,0.00,,2013-06-18 13:33:00,
2013-06-18 09:43:00,69.0,65.0,29.92,South,177,0.0,3.0,86,0.00,,,0.00,,2013-06-18 13:43:00,
2013-06-18 09:52:00,69.0,65.0,29.92,South,177,0.0,3.0,86,0.00,,,0.00,,2013-06-18 13:52:00,
2013-06-18 10:02:00,69.0,65.0,29.92,South,178,0.0,3.0,86,0.00,,,0.00,,2013-06-18 14:02:00,
2013-06-18 10:11:00,70.0,65.0,29.92,South,178,1.0,5.0,84,0.00,,,0.00,,2013-06-18 14:11:00,
2013-06-18 10:22:00,70.0,65.0,29.92,South,178,0.0,4.0,83,0.00,,,0.00,,2013-06-18 14:22:00,
2013-06-18 10:33:00,70.0,65.0,29.92,South,178,0.0,4.0,83,0.00,,,0.00,,2013-06-18 14:33:00,
2013-06-18 10:43:00,70.0,65.0,29.91,South,178,0.0,5.0,83,0.00,,,0.00,,2013-06-18 14:43:00,
2013-06-18 10:53:00,70.0,65.0,29.91,South,178,0.0,5.0,83,0.00,,,0.00,,2013-06-18 14:53:00,
2013-06-18 11:02:00,70.0,65.0,29.91,South,178,0.0,2.0,83,0.00,,,0.00,,2013-06-18 15:02:00,
2013-06-18 11:11:00,70.0,64.0,29.91,South,179,0.0,3.0,82,0.00,,,0.00,,2013-06-18 15:11:00,
2013-06-18 11:22:00,70.0,64.0,29.91,South,180,2.0,5.0,81,0.00,,,0.00,,2013-06-18 15:22:00,
2013-06-18 11:33:00,70.0,64.0,29.91,South,187,1.0,7.0,81,0.00,,,0.00,,2013-06-18 15:33:00,
2013-06-18 11:43:00,71.0,65.0,29.92,South,187,2.0,5.0,81,0.00,,,0.00,,2013-06-18 15:43:00,
2013-06-18 11:53:00,71.0,65.0,29.92,South,187,2.0,5.0,81,0.00,,,0.00,,2013-06-18 15:53:00,
2013-06-18 12:01:00,71.0,65.0,29.91,South,187,2.0,5.0,81,0.00,,,0.00,,2013-06-18 16:01:00,
2013-06-18 12:11:00,71.0,65.0,29.90,South,189,1.0,7.0,81,0.00,,,0.00,,2013-06-18 16:11:00,
2013-06-18 12:23:00,72.0,66.0,29.90,South,191,2.0,5.0,82,0.00,,,0.00,,2013-06-18 16:23:00,
2013-06-18 12:33:00,72.0,65.0,29.89,SSW,192,2.0,5.0,79,0.00,,,0.00,,2013-06-18 16:33:00,
2013-06-18 12:43:00,73.0,66.0,29.89,SSW,195,1.0,5.0,78,0.00,,,0.00,,2013-06-18 16:43:00,
2013-06-18 12:53:00,74.0,66.0,29.88,South,191,2.0,6.0,77,0.00,,,0.00,,2013-06-18 16:53:00,
2013-06-18 13:02:00,74.0,66.0,29.89,SSW,194,3.0,5.0,75,0.00,,,0.00,,2013-06-18 17:02:00,
2013-06-18 13:12:00,75.0,67.0,29.89,SSW,199,3.0,5.0,75,0.00,,,0.00,,2013-06-18 17:12:00,
2013-06-18 13:22:00,75.0,66.0,29.89,SSW,203,1.0,5.0,74,0.00,,,0.00,,2013-06-18 17:22:00,
2013-06-18 13:33:00,75.0,66.0,29.89,SSW,203,1.0,5.0,74,0.00,,,0.00,,2013-06-18 17:33:00,
2013-06-18 13:43:00,76.0,67.0,29.89,SSW,204,1.0,4.0,74,0.00,,,0.00,,2013-06-18 17:43:00,
2013-06-18 13:53:00,77.0,68.0,29.88,SSW,205,1.0,4.0,75,0.00,,,0.00,,2013-06-18 17:53:00,
2013-06-18 14:02:00,77.0,68.0,29.88,SSW,205,1.0,4.0,73,0.00,,,0.00,,2013-06-18 18:02:00,
2013-06-18 14:12:00,77.0,68.0,29.88,SSW,205,1.0,4.0,73,0.00,,,0.00,,2013-06-18 18:12:00,
2013-06-18 14:22:00,77.0,67.0,29.88,SW,219,2.0,6.0,72,0.00,,,0.00,,2013-06-18 18:22:00,
2013-06-18 14:33:00,78.0,69.0,29.87,SW,220,1.0,4.0,73,0.00,,,0.00,,2013-06-18 18:33:00,
2013-06-18 14:42:00,78.0,69.0,29.87,SW,225,2.0,4.0,73,0.00,,,0.00,,2013-06-18 18:42:00,
2013-06-18 14:53:00,78.0,68.0,29.86,SW,225,2.0,3.0,71,0.00,,,0.00,,2013-06-18 18:53:00,
2013-06-18 15:02:00,78.0,67.0,29.86,SW,222,1.0,4.0,70,0.00,,,0.00,,2013-06-18 19:02:00,
2013-06-18 15:12:00,79.0,68.0,29.86,SW,222,1.0,2.0,70,0.00,,,0.00,,2013-06-18 19:12:00,
2013-06-18 15:22:00,79.0,68.0,29.86,SW,222,1.0,2.0,68,0.00,,,0.00,,2013-06-18 19:22:00,
2013-06-18 15:33:00,79.0,68.0,29.85,SW,226,1.0,4.0,69,0.00,,,0.00,,2013-06-18 19:33:00,
2013-06-18 15:43:00,79.0,68.0,29.86,WSW,237,2.0,5.0,69,0.00,,,0.00,,2013-06-18 19:43:00,
2013-06-18 15:52:00,80.0,69.0,29.86,West,276,0.0,3.0,69,0.00,,,0.00,,2013-06-18 19:52:00,
2013-06-18 16:02:00,79.0,68.0,29.86,West,276,0.0,2.0,68,0.00,,,0.00,,2013-06-18 20:02:00,
2013-06-18 16:11:00,79.0,69.0,29.86,West,276,0.0,1.0,71,0.00,,,0.00,,2013-06-18 20:11:00,
2013-06-18 16:23:00,79.0,68.0,29.86,West,276,0.0,2.0,69,0.00,,,0.00,,2013-06-18 20:23:00,
2013-06-18 16:33:00,79.0,69.0,29.87,West,276,0.0,3.0,72,0.00,,,0.00,,2013-06-18 20:33:00,
2013-06-18 16:43:00,79.0,70.0,29.85,West,273,3.0,5.0,73,0.00,,,0.00,,2013-06-18 20:43:00,
2013-06-18 16:52:00,79.0,69.0,29.85,West,268,2.0,5.0,72,0.00,,,0.00,,2013-06-18 20:52:00,
2013-06-18 17:02:00,79.0,69.0,29.85,West,268,2.0,5.0,72,0.00,,,0.00,,2013-06-18 21:02:00,
2013-06-18 17:12:00,80.0,70.0,29.85,West,267,2.0,4.0,71,0.00,,,0.00,,2013-06-18 21:12:00,
2013-06-18 17:23:00,80.0,69.0,29.84,West,266,1.0,5.0,70,0.00,,,0.00,,2013-06-18 21:23:00,
2013-06-18 17:33:00,81.0,70.0,29.84,WSW,249,0.0,7.0,69,0.00,,,0.00,,2013-06-18 21:33:00,
2013-06-18 17:43:00,82.0,70.0,29.84,WSW,249,3.0,5.0,68,0.00,,,0.00,,2013-06-18 21:43:00,
2013-06-18 17:52:00,82.0,70.0,29.83,WSW,242,2.0,4.0,67,0.00,,,0.00,,2013-06-18 21:52:00,
2013-06-18 18:02:00,81.0,69.0,29.82,WSW,241,2.0,4.0,66,0.00,,,0.00,,2013-06-18 22:02:00,
2013-06-18 18:11:00,81.0,69.0,29.82,WSW,241,2.0,4.0,66,0.00,,,0.00,,2013-06-18 22:11:00,
2013-06-18 18:22:00,81.0,69.0,29.84,NW,306,4.0,6.0,67,0.00,,,0.00,,2013-06-18 22:22:00,
2013-06-18 18:34:00,75.0,66.0,29.84,ENE,62,2.0,9.0,73,0.30,,,0.30,,2013-06-18 22:34:00,
2013-06-18 18:53:00,68.0,62.0,29.84,ENE,65,0.0,2.0,80,0.37,,,0.37,,2013-06-18 22:53:00,
2013-06-18 19:12:00,66.0,62.0,29.86,ESE,116,0.0,6.0,87,0.39,,,0.39,,2013-06-18 23:12:00,
2013-06-18 19:23:00,66.0,62.0,29.88,ESE,116,0.0,1.0,88,0.41,,,0.41,,2013-06-18 23:23:00,
2013-06-18 19:37:00,66.0,63.0,29.89,ESE,120,0.0,5.0,89,0.13,,,0.42,,2013-06-18 23:37:00,
2013-06-18 19:46:00,66.0,63.0,29.88,ESE,121,0.0,3.0,89,0.07,,,0.42,,2013-06-18 23:46:00,
2013-06-18 19:53:00,66.0,63.0,29.88,ESE,121,0.0,3.0,89,0.07,,,0.42,,2013-06-18 23:53:00,
2013-06-18 20:02:00,65.0,62.0,29.89,ESE,121,0.0,3.0,89,0.05,,,0.42,,2013-06-19 00:02:00,
2013-06-18 20:12:00,65.0,62.0,29.88,ESE,121,0.0,0.0,90,0.03,,,0.42,,2013-06-19 00:12:00,
2013-06-18 20:22:00,65.0,62.0,29.88,ESE,121,0.0,0.0,91,0.01,,,0.42,,2013-06-19 00:22:00,
2013-06-18 20:33:00,65.0,62.0,29.88,ESE,120,0.0,3.0,91,0.00,,,0.42,,2013-06-19 00:33:00,
2013-06-18 20:43:00,65.0,62.0,29.88,ESE,122,0.0,1.0,91,0.00,,,0.42,,2013-06-19 00:43:00,
2013-06-18 20:53:00,65.0,62.0,29.88,ESE,122,0.0,1.0,91,0.00,,,0.42,,2013-06-19 00:53:00,
2013-06-18 21:01:00,65.0,63.0,29.89,ESE,122,0.0,1.0,92,0.00,,,0.42,,2013-06-19 01:01:00,
2013-06-18 21:11:00,65.0,63.0,29.89,SE,124,0.0,3.0,92,0.00,,,0.42,,2013-06-19 01:11:00,
2013-06-18 21:22:00,64.0,62.0,29.89,SE,124,0.0,2.0,92,0.00,,,0.42,,2013-06-19 01:22:00,
2013-06-18 21:32:00,64.0,62.0,29.89,SE,124,0.0,2.0,92,0.00,,,0.42,,2013-06-19 01:32:00,
2013-06-18 21:43:00,64.0,62.0,29.89,SE,124,0.0,2.0,92,0.00,,,0.42,,2013-06-19 01:43:00,
2013-06-18 21:53:00,65.0,63.0,29.90,SE,124,0.0,1.0,92,0.00,,,0.42,,2013-06-19 01:53:00,
2013-06-18 22:01:00,65.0,63.0,29.90,SE,124,0.0,1.0,92,0.00,,,0.42,,2013-06-19 02:01:00,
2013-06-18 22:11:00,65.0,63.0,29.90,SE,124,0.0,1.0,92,0.00,,,0.42,,2013-06-19 02:11:00,
2013-06-18 22:21:00,65.0,63.0,29.89,SE,124,0.0,0.0,93,0.00,,,0.42,,2013-06-19 02:21:00,
2013-06-18 22:32:00,65.0,63.0,29.89,SE,124,0.0,0.0,93,0.00,,,0.42,,2013-06-19 02:32:00,
2013-06-18 22:43:00,65.0,63.0,29.91,SE,124,0.0,0.0,93,0.00,,,0.42,,2013-06-19 02:43:00,
2013-06-18 22:52:00,65.0,63.0,29.91,SE,124,0.0,0.0,93,0.00,,,0.42,,2013-06-19 02:52:00,
2013-06-18 23:01:00,65.0,63.0,29.91,SE,124,0.0,0.0,93,0.00,,,0.42,,2013-06-19 03:01:00,
2013-06-18 23:11:00,65.0,63.0,29.93,SE,124,0.0,1.0,93,0.00,,,0.42,,2013-06-19 03:11:00,
2013-06-18 23:22:00,65.0,63.0,29.94,SE,124,0.0,1.0,93,0.00,,,0.42,,2013-06-19 03:22:00,
2013-06-18 23:33:00,65.0,63.0,29.94,SE,124,0.0,1.0,93,0.00,,,0.42,,2013-06-19 03:33:00,
2013-06-18 23:42:00,65.0,63.0,29.94,SE,124,0.0,2.0,94,0.00,,,0.42,,2013-06-19 03:42:00,
2013-06-18 23:52:00,65.0,63.0,29.95,SE,124,0.0,0.0,93,0.00,,,0.42,,2013-06-19 03:52:00,